This is the latest recevied weather packets stored in our database for station/object N0HOT. If no packets are shown the sender has not sent any weather packets the latest 10 day(s).
| Time | Temp. | Humidity | Pressure | Rain* | Wind** | Luminosity | Snow |
|---|---|---|---|---|---|---|---|
| 1777992440 | 10.56° C | 30% | 1011.1 hPa | 0 mm | - | 592 W/m² | - |
| 1777992138 | 10° C | 31% | 1011.1 hPa | 0 mm | - | 551 W/m² | - |
| 1777991835 | 10° C | 32% | 1011.1 hPa | 0 mm | - | 482 W/m² | - |
| 1777991532 | 9.44° C | 34% | 1011.1 hPa | 0 mm | - | 402 W/m² | - |
| 1777991229 | 8.89° C | 35% | 1011.1 hPa | 0 mm | - | 447 W/m² | - |
| 1777990926 | 8.89° C | 36% | 1011.1 hPa | 0 mm | - | 361 W/m² | - |
| 1777990624 | 8.89° C | 40% | 1011.5 hPa | 0 mm | - | 299 W/m² | - |
| 1777990017 | 8.89° C | 41% | 1011.1 hPa | 0 mm | - | 65 W/m² | - |
| 1777989714 | 8.89° C | 40% | 1011.1 hPa | 0 mm | - | 109 W/m² | - |
| 1777989410 | 8.89° C | 41% | 1011.5 hPa | 0 mm | - | 89 W/m² | - |
| 1777989107 | 8.89° C | 40% | 1011.5 hPa | 0 mm | - | 49 W/m² | - |
| 1777988802 | 8.89° C | 39% | 1011.5 hPa | 0 mm | - | 53 W/m² | - |
| 1777988500 | 8.89° C | 40% | 1011.5 hPa | 0 mm | - | 161 W/m² | - |
| 1777988197 | 8.33° C | 40% | 1011.8 hPa | 0 mm | - | 217 W/m² | - |
| 1777987893 | 8.33° C | 42% | 1011.5 hPa | 0 mm | - | 263 W/m² | - |
| 1777987589 | 7.78° C | 41% | 1011.5 hPa | 0 mm | - | 87 W/m² | - |
| 1777987287 | 7.78° C | 44% | 1011.8 hPa | 0 mm | - | 235 W/m² | - |
| 1777986984 | 7.22° C | 45% | 1011.8 hPa | 0 mm | - | 81 W/m² | - |
| 1777986682 | 6.67° C | 45% | 1011.8 hPa | 0 mm | - | 103 W/m² | - |
| 1777986380 | 6.67° C | 45% | 1011.5 hPa | 0 mm | - | 39 W/m² | - |
| 1777986078 | 6.11° C | 47% | 1011.8 hPa | 0 mm | - | 115 W/m² | - |
| 1777985774 | 6.11° C | 49% | 1011.5 hPa | 0 mm | - | 60 W/m² | - |
| 1777985471 | 5.56° C | 49% | 1011.5 hPa | 0 mm | - | 35 W/m² | - |
| 1777985167 | 5.56° C | 50% | 1011.5 hPa | 0 mm | - | 40 W/m² | - |
| 1777984864 | 5° C | 52% | 1011.5 hPa | 0 mm | - | 39 W/m² | - |
* Rain latest hour (hover to see other rain measurements)
** Current wind speed in m/s (hover to see current wind gust speed)